Time,TemperatureF,DewpointF,PressureIn,WindDirection,WindDirectionDegrees,WindSpeedMPH,WindSpeedGustMPH,Humidity,HourlyPrecipIn,Conditions,Clouds,dailyrainin,SolarRadiationWatts/m^2,SoftwareType,DateUTC
2013-02-06 00:10:00,38.9,28.0,29.95,SSE,155,7.0,11.0,64,0.00,,,0.00,0,weatherlink.com 1.10,2013-02-06 06:10:00,
2013-02-06 00:25:00,38.1,28.0,29.96,SSE,163,6.0,13.0,66,0.00,,,0.00,0,weatherlink.com 1.10,2013-02-06 06:25:00,
2013-02-06 00:40:00,38.1,27.0,29.96,South,179,4.0,13.0,65,0.00,,,0.00,0,weatherlink.com 1.10,2013-02-06 06:40:00,
2013-02-06 00:55:00,37.8,27.0,29.95,South,185,8.0,13.0,65,0.00,,,0.00,0,weatherlink.com 1.10,2013-02-06 06:55:00,
2013-02-06 01:10:00,36.9,26.0,29.95,South,173,3.0,12.0,66,0.00,,,0.00,0,weatherlink.com 1.10,2013-02-06 07:10:00,
2013-02-06 01:26:00,36.4,26.0,29.94,South,182,10.0,12.0,66,0.00,,,0.00,0,weatherlink.com 1.10,2013-02-06 07:26:00,
2013-02-06 01:41:00,36.3,26.0,29.94,South,172,9.0,13.0,66,0.00,,,0.00,0,weatherlink.com 1.10,2013-02-06 07:41:00,
2013-02-06 01:56:00,35.5,25.0,29.93,SSE,168,9.0,10.0,67,0.00,,,0.00,0,weatherlink.com 1.10,2013-02-06 07:56:00,
2013-02-06 02:11:00,35.3,26.0,29.93,SE,138,8.0,12.0,68,0.00,,,0.00,0,weatherlink.com 1.10,2013-02-06 08:11:00,
2013-02-06 02:26:00,36.3,26.0,29.93,South,179,6.0,13.0,66,0.00,,,0.00,0,weatherlink.com 1.10,2013-02-06 08:26:00,
2013-02-06 02:41:00,35.7,26.0,29.92,South,171,6.0,13.0,67,0.00,,,0.00,0,weatherlink.com 1.10,2013-02-06 08:41:00,
2013-02-06 02:56:00,36.0,26.0,29.92,South,178,5.0,15.0,66,0.00,,,0.00,0,weatherlink.com 1.10,2013-02-06 08:56:00,
2013-02-06 03:11:00,35.5,25.0,29.92,South,185,5.0,10.0,67,0.00,,,0.00,0,weatherlink.com 1.10,2013-02-06 09:11:00,
2013-02-06 03:26:00,34.4,25.0,29.91,SE,137,5.0,8.0,69,0.00,,,0.00,0,weatherlink.com 1.10,2013-02-06 09:26:00,
2013-02-06 03:41:00,33.9,25.0,29.90,SE,143,2.0,9.0,70,0.00,,,0.00,0,weatherlink.com 1.10,2013-02-06 09:41:00,
2013-02-06 03:56:00,35.0,25.0,29.89,South,170,6.0,11.0,68,0.00,,,0.00,0,weatherlink.com 1.10,2013-02-06 09:56:00,
2013-02-06 04:11:00,35.7,25.0,29.89,SSE,163,6.0,12.0,66,0.00,,,0.00,0,weatherlink.com 1.10,2013-02-06 10:11:00,
2013-02-06 04:26:00,36.2,26.0,29.89,South,180,4.0,11.0,66,0.00,,,0.00,0,weatherlink.com 1.10,2013-02-06 10:26:00,
2013-02-06 04:41:00,36.9,26.0,29.89,SSE,164,4.0,11.0,64,0.00,,,0.00,0,weatherlink.com 1.10,2013-02-06 10:41:00,
2013-02-06 04:56:00,36.2,25.0,29.88,South,171,5.0,10.0,65,0.00,,,0.00,0,weatherlink.com 1.10,2013-02-06 10:56:00,
2013-02-06 05:11:00,35.2,25.0,29.88,SSE,160,4.0,10.0,66,0.00,,,0.00,0,weatherlink.com 1.10,2013-02-06 11:11:00,
2013-02-06 05:26:00,34.6,25.0,29.88,South,173,4.0,9.0,68,0.00,,,0.00,0,weatherlink.com 1.10,2013-02-06 11:26:00,
2013-02-06 05:41:00,34.0,24.0,29.87,South,175,6.0,11.0,68,0.00,,,0.00,0,weatherlink.com 1.10,2013-02-06 11:41:00,
2013-02-06 05:56:00,33.3,24.0,29.86,South,174,3.0,9.0,70,0.00,,,0.00,0,weatherlink.com 1.10,2013-02-06 11:56:00,
2013-02-06 06:11:00,32.6,24.0,29.86,SSE,157,3.0,6.0,71,0.00,,,0.00,0,weatherlink.com 1.10,2013-02-06 12:11:00,
2013-02-06 06:26:00,32.9,24.0,29.85,South,175,3.0,7.0,70,0.00,,,0.00,0,weatherlink.com 1.10,2013-02-06 12:26:00,
2013-02-06 06:41:00,32.9,24.0,29.85,SSE,168,1.0,6.0,70,0.00,,,0.00,0,weatherlink.com 1.10,2013-02-06 12:41:00,
2013-02-06 06:56:00,33.3,24.0,29.85,SSE,163,3.0,10.0,69,0.00,,,0.00,0,weatherlink.com 1.10,2013-02-06 12:56:00,
2013-02-06 07:11:00,33.7,24.0,29.85,South,174,6.0,9.0,68,0.00,,,0.00,0,weatherlink.com 1.10,2013-02-06 13:11:00,
2013-02-06 07:26:00,33.5,24.0,29.85,SSE,163,6.0,8.0,69,0.00,,,0.00,0,weatherlink.com 1.10,2013-02-06 13:26:00,
2013-02-06 07:41:00,33.2,24.0,29.85,SSW,202,3.0,7.0,68,0.00,,,0.00,0,weatherlink.com 1.10,2013-02-06 13:41:00,
2013-02-06 07:56:00,33.2,24.0,29.86,SW,225,4.0,7.0,69,0.00,,,0.00,11,weatherlink.com 1.10,2013-02-06 13:56:00,
2013-02-06 08:11:00,34.4,26.0,29.86,WSW,238,9.0,12.0,71,0.00,,,0.00,21,weatherlink.com 1.10,2013-02-06 14:11:00,
2013-02-06 08:26:00,34.6,26.0,29.86,SSW,209,5.0,6.0,70,0.00,,,0.00,53,weatherlink.com 1.10,2013-02-06 14:26:00,
2013-02-06 08:42:00,38.2,28.0,29.86,SSW,198,7.0,10.0,66,0.00,,,0.00,95,weatherlink.com 1.10,2013-02-06 14:42:00,
2013-02-06 08:57:00,38.8,28.0,29.86,SW,219,4.0,8.0,65,0.00,,,0.00,148,weatherlink.com 1.10,2013-02-06 14:57:00,
2013-02-06 09:12:00,39.2,27.0,29.86,West,260,3.0,8.0,63,0.00,,,0.00,202,weatherlink.com 1.10,2013-02-06 15:12:00,
2013-02-06 09:27:00,39.5,28.0,29.86,WSW,248,3.0,7.0,63,0.00,,,0.00,248,weatherlink.com 1.10,2013-02-06 15:27:00,
2013-02-06 09:42:00,42.1,30.0,29.86,SSW,207,7.0,16.0,62,0.00,,,0.00,288,weatherlink.com 1.10,2013-02-06 15:42:00,
2013-02-06 09:57:00,43.2,30.0,29.86,SSW,211,9.0,12.0,61,0.00,,,0.00,330,weatherlink.com 1.10,2013-02-06 15:57:00,
2013-02-06 10:12:00,44.7,32.0,29.85,SW,220,11.0,15.0,62,0.00,,,0.00,366,weatherlink.com 1.10,2013-02-06 16:12:00,
2013-02-06 10:27:00,46.5,34.0,29.84,SSW,212,11.0,14.0,61,0.00,,,0.00,403,weatherlink.com 1.10,2013-02-06 16:27:00,
2013-02-06 10:42:00,47.2,34.0,29.84,South,178,8.0,17.0,60,0.00,,,0.00,438,weatherlink.com 1.10,2013-02-06 16:42:00,
2013-02-06 10:57:00,47.7,34.0,29.83,South,171,2.0,13.0,59,0.00,,,0.00,468,weatherlink.com 1.10,2013-02-06 16:57:00,
2013-02-06 11:12:00,49.5,35.0,29.83,South,174,4.0,12.0,58,0.00,,,0.00,499,weatherlink.com 1.10,2013-02-06 17:12:00,
2013-02-06 11:27:00,50.8,36.0,29.82,South,190,7.0,10.0,57,0.00,,,0.00,526,weatherlink.com 1.10,2013-02-06 17:27:00,
2013-02-06 11:42:00,51.9,36.0,29.81,South,181,6.0,11.0,54,0.00,,,0.00,547,weatherlink.com 1.10,2013-02-06 17:42:00,
2013-02-06 11:57:00,53.0,35.0,29.80,SSE,167,8.0,12.0,50,0.00,,,0.00,563,weatherlink.com 1.10,2013-02-06 17:57:00,
2013-02-06 12:13:00,54.3,34.0,29.79,South,186,8.0,12.0,47,0.00,,,0.00,573,weatherlink.com 1.10,2013-02-06 18:13:00,
2013-02-06 12:28:00,55.1,35.0,29.78,South,182,10.0,11.0,47,0.00,,,0.00,585,weatherlink.com 1.10,2013-02-06 18:28:00,
2013-02-06 12:43:00,56.0,36.0,29.77,SSE,167,3.0,11.0,47,0.00,,,0.00,582,weatherlink.com 1.10,2013-02-06 18:43:00,
2013-02-06 12:58:00,57.0,36.0,29.77,South,175,3.0,9.0,46,0.00,,,0.00,592,weatherlink.com 1.10,2013-02-06 18:58:00,
2013-02-06 13:13:00,57.0,36.0,29.77,South,177,3.0,10.0,46,0.00,,,0.00,587,weatherlink.com 1.10,2013-02-06 19:13:00,
2013-02-06 13:28:00,57.6,35.0,29.77,SSW,194,2.0,13.0,43,0.00,,,0.00,582,weatherlink.com 1.10,2013-02-06 19:28:00,
2013-02-06 13:43:00,58.2,34.0,29.76,West,279,1.0,11.0,40,0.00,,,0.00,573,weatherlink.com 1.10,2013-02-06 19:43:00,
2013-02-06 13:58:00,58.3,33.0,29.75,SE,132,5.0,6.0,39,0.00,,,0.00,561,weatherlink.com 1.10,2013-02-06 19:58:00,
2013-02-06 14:13:00,58.9,33.0,29.75,ESE,119,4.0,9.0,38,0.00,,,0.00,545,weatherlink.com 1.10,2013-02-06 20:13:00,
2013-02-06 14:28:00,59.3,34.0,29.75,SSW,201,1.0,7.0,39,0.00,,,0.00,524,weatherlink.com 1.10,2013-02-06 20:28:00,
2013-02-06 14:43:00,60.6,34.0,29.74,WNW,298,0.0,3.0,37,0.00,,,0.00,503,weatherlink.com 1.10,2013-02-06 20:43:00,
2013-02-06 14:58:00,62.5,34.0,29.74,WNW,294,1.0,7.0,34,0.00,,,0.00,483,weatherlink.com 1.10,2013-02-06 20:58:00,
2013-02-06 15:13:00,61.8,31.0,29.74,NW,305,0.0,8.0,32,0.00,,,0.00,452,weatherlink.com 1.10,2013-02-06 21:13:00,
2013-02-06 15:28:00,61.8,30.0,29.74,WNW,290,6.0,10.0,30,0.00,,,0.00,422,weatherlink.com 1.10,2013-02-06 21:28:00,
2013-02-06 15:43:00,63.3,29.0,29.74,West,280,5.0,6.0,28,0.00,,,0.00,388,weatherlink.com 1.10,2013-02-06 21:43:00,
2013-02-06 15:58:00,62.6,29.0,29.74,WNW,301,2.0,6.0,28,0.00,,,0.00,348,weatherlink.com 1.10,2013-02-06 21:58:00,
2013-02-06 16:13:00,62.5,29.0,29.74,West,270,1.0,5.0,28,0.00,,,0.00,311,weatherlink.com 1.10,2013-02-06 22:13:00,
2013-02-06 16:28:00,62.5,28.0,29.74,NNW,333,0.0,8.0,27,0.00,,,0.00,269,weatherlink.com 1.10,2013-02-06 22:28:00,
2013-02-06 16:43:00,61.8,27.0,29.75,NW,309,0.0,7.0,27,0.00,,,0.00,218,weatherlink.com 1.10,2013-02-06 22:43:00,
2013-02-06 16:58:00,61.6,29.0,29.75,NNW,346,1.0,5.0,29,0.00,,,0.00,162,weatherlink.com 1.10,2013-02-06 22:58:00,
2013-02-06 17:13:00,59.8,28.0,29.76,NE,36,3.0,5.0,30,0.00,,,0.00,113,weatherlink.com 1.10,2013-02-06 23:13:00,
2013-02-06 17:28:00,58.4,28.0,29.76,NNW,347,0.0,4.0,32,0.00,,,0.00,65,weatherlink.com 1.10,2013-02-06 23:28:00,
2013-02-06 17:43:00,56.2,27.0,29.77,North,360,0.0,3.0,33,0.00,,,0.00,19,weatherlink.com 1.10,2013-02-06 23:43:00,
2013-02-06 17:58:00,53.2,27.0,29.78,North,5,0.0,0.0,36,0.00,,,0.00,7,weatherlink.com 1.10,2013-02-06 23:58:00,
2013-02-06 18:13:00,51.3,27.0,29.79,North,5,0.0,1.0,39,0.00,,,0.00,0,weatherlink.com 1.10,2013-02-07 00:13:00,
2013-02-06 18:28:00,49.8,27.0,29.80,North,5,0.0,1.0,41,0.00,,,0.00,0,weatherlink.com 1.10,2013-02-07 00:28:00,
2013-02-06 18:43:00,48.2,26.0,29.80,North,349,0.0,1.0,43,0.00,,,0.00,0,weatherlink.com 1.10,2013-02-07 00:43:00,
2013-02-06 18:58:00,47.0,26.0,29.81,NNW,342,0.0,2.0,44,0.00,,,0.00,0,weatherlink.com 1.10,2013-02-07 00:58:00,
2013-02-06 19:13:00,47.0,26.0,29.82,NNE,15,1.0,3.0,45,0.00,,,0.00,0,weatherlink.com 1.10,2013-02-07 01:13:00,
2013-02-06 19:28:00,47.9,27.0,29.82,North,5,0.0,1.0,44,0.00,,,0.00,0,weatherlink.com 1.10,2013-02-07 01:28:00,
2013-02-06 19:43:00,47.4,26.0,29.83,North,355,0.0,1.0,44,0.00,,,0.00,0,weatherlink.com 1.10,2013-02-07 01:43:00,
2013-02-06 19:58:00,46.7,27.0,29.84,NNW,345,0.0,2.0,46,0.00,,,0.00,0,weatherlink.com 1.10,2013-02-07 01:58:00,
2013-02-06 20:13:00,47.2,28.0,29.84,NNW,342,0.0,6.0,47,0.00,,,0.00,0,weatherlink.com 1.10,2013-02-07 02:13:00,
2013-02-06 20:28:00,48.0,28.0,29.86,North,350,0.0,6.0,46,0.00,,,0.00,0,weatherlink.com 1.10,2013-02-07 02:28:00,
2013-02-06 20:43:00,48.1,28.0,29.86,North,351,0.0,5.0,46,0.00,,,0.00,0,weatherlink.com 1.10,2013-02-07 02:43:00,
2013-02-06 20:58:00,48.2,28.0,29.86,North,355,1.0,6.0,46,0.00,,,0.00,0,weatherlink.com 1.10,2013-02-07 02:58:00,
2013-02-06 21:13:00,47.8,28.0,29.88,NNW,342,0.0,2.0,47,0.00,,,0.00,0,weatherlink.com 1.10,2013-02-07 03:13:00,
2013-02-06 21:28:00,47.8,28.0,29.88,NNE,31,0.0,4.0,47,0.00,,,0.00,0,weatherlink.com 1.10,2013-02-07 03:28:00,
2013-02-06 21:43:00,47.2,28.0,29.89,North,5,0.0,0.0,48,0.00,,,0.00,0,weatherlink.com 1.10,2013-02-07 03:43:00,
2013-02-06 21:58:00,46.4,28.0,29.89,North,5,0.0,1.0,50,0.00,,,0.00,0,weatherlink.com 1.10,2013-02-07 03:58:00,
2013-02-06 22:13:00,45.6,29.0,29.90,North,360,0.0,1.0,52,0.00,,,0.00,0,weatherlink.com 1.10,2013-02-07 04:13:00,
2013-02-06 22:28:00,45.4,29.0,29.91,NNW,342,0.0,2.0,53,0.00,,,0.00,0,weatherlink.com 1.10,2013-02-07 04:28:00,
2013-02-06 22:43:00,45.2,29.0,29.91,NNW,331,0.0,3.0,54,0.00,,,0.00,0,weatherlink.com 1.10,2013-02-07 04:43:00,
2013-02-06 22:58:00,44.8,29.0,29.92,NNW,329,0.0,5.0,54,0.00,,,0.00,0,weatherlink.com 1.10,2013-02-07 04:58:00,
2013-02-06 23:13:00,44.3,29.0,29.93,NNW,344,0.0,6.0,55,0.00,,,0.00,0,weatherlink.com 1.10,2013-02-07 05:13:00,
2013-02-06 23:28:00,43.8,29.0,29.94,NNW,340,0.0,5.0,57,0.00,,,0.00,0,weatherlink.com 1.10,2013-02-07 05:28:00,
2013-02-06 23:43:00,43.4,30.0,29.95,NNW,336,0.0,5.0,59,0.00,,,0.00,0,weatherlink.com 1.10,2013-02-07 05:43:00,
2013-02-06 23:58:00,43.1,30.0,29.95,NW,320,2.0,7.0,60,0.00,,,0.00,0,weatherlink.com 1.10,2013-02-07 05:58:00,